Regional Weather Roundup
Issued by NWS

Home | Current Version | Previous Version | Graphics & Text | Print | Product List | Glossary On
Versions: 1 2 3 4 5 6 7 8 9 10 11 12 13 14 15 16 17 18 19 20 21 22 23 24 25 26 27 28 29 30 31 32 33 34 35 36 37 38 39 40 41 42 43 44 45 46 47 48 49 50
000
ASUS43 KFSD 221510
RWRSD

WEATHER ROUNDUP FOR SOUTH DAKOTA
NATIONAL WEATHER SERVICE SIOUX FALLS SD
1000 AM CDT FRI AUG 22 2014

NOTE: "FAIR" INDICATES FEW OR NO CLOUDS BELOW 12,000 FEET WITH NO
SIGNIFICANT WEATHER AND/OR OBSTRUCTIONS TO VISIBILITY.


SDZ001>005-009-010-012>017-221600-
NORTHWEST AND NORTH CENTRAL SOUTH DAKOTA

CITY           SKY/WX    TMP DP  RH WIND       PRES   REMARKS
BUFFALO          N/A     63  59  87 S5        30.02F
FAITH            N/A     64  61  90 N8        30.04F
MOBRIDGE       PTSUNNY   67  64  90 NW3       29.99F
$$

SDZ012>016-024>037-041>051-057-063-072>074-221600-
SOUTHWEST AND SOUTH CENTRAL SOUTH DAKOTA

CITY           SKY/WX    TMP DP  RH WIND       PRES   REMARKS
RAPID CTY ARPT CLOUDY    63  61  93 N6        30.08F
PIERRE         CLOUDY    71  66  84 NE13      29.99S
CUSTER         SUNNY     61  53  75 E3        30.17R
ELLSWORTH AFB  CLOUDY    63  63  97 N8        30.08F
PHILIP         CLOUDY    68  64  87 NE9       30.01F
PINE RIDGE     CLOUDY    64  60  87 NW7       30.08S
WINNER         FAIR      76  68  76 E7        30.00S
$$

SDZ004>011-016>023-039-040-221600-
NORTHEAST SOUTH DAKOTA

CITY           SKY/WX    TMP DP  RH WIND       PRES   REMARKS
ABERDEEN       CLOUDY    66  66 100 NE6       30.00S
WATERTOWN      SUNNY     74  68  81 N6        29.98S
SISSETON         N/A     70  69  97 N8        29.97R
$$

SDZ017-020-022-023-036>040-048>070-221600-
SOUTHEAST SOUTH DAKOTA

CITY           SKY/WX    TMP DP  RH WIND       PRES   REMARKS
SIOUX FALLS    MOSUNNY   77  71  82 NE10      29.97R
HURON          SUNNY     75  67  76 N7        29.98R
CHAMBERLAIN    MOSUNNY   76  66  71 NE9       29.99S
MITCHELL       MOSUNNY   71  69  93 N6        29.98S
YANKTON        SUNNY     77  70  78 N6        29.95R
$$

ABBREVIATIONS USED IN REMARKS
   TC - TEMPERATURE IN CELSIUS
  WCI - WIND CHILL INDEX
   HX - HEAT INDEX
  VSB - VISIBILITY



USA.gov is the U.S. government's official web portal to all federal, state and local government web resources and services.